Alexandria, Egypt

8:24 PM EET on April 28, 2017 (GMT +0200)
Alexandria

Weather History for 62318 - February, 2014

Change the Weather History Date:

Friday, February 14, 2014

  Actual Average Record
Temperature  
Mean Temperature 58 °F -  
Max Temperature 66 °F 65 °F - ()
Min Temperature 50 °F 49 °F - ()
Degree Days  
Heating Degree Days 7    
Growing Degree Days 8 (Base 50)    
Moisture  
Dew Point 50 °F    
Average Humidity 68    
Maximum Humidity 97    
Minimum Humidity 41    
Precipitation  
Precipitation 0.00 in 0.03 in - ()
Sea Level Pressure  
Sea Level Pressure 29.92 in    
Wind  
Wind Speed 8 mph ()    
Max Wind Speed 21 mph    
Max Gust Speed -    
Visibility 5.7 miles    
Events      
T = Trace of Precipitation, MM = Missing Value Source: Averaged Metar Reports

Daily Weather History Graph

Daily Weather History Graph

Search for Another Location

Airport or City:

Trip Planner

Search our weather history database for the weather conditions in past years. The results will help you decide how hot, cold, wet, or windy it might be!

Date:

Astronomy

Feb. 14, 2014 Rise Set
Actual Time 6:42 AM EET 5:46 PM EET
Civil Twilight 6:17 AM EET 6:11 PM EET
Nautical Twilight 5:49 AM EET 6:39 PM EET
Astronomical Twilight 5:21 AM EET 7:08 PM EET
Moon 5:29 PM EET (2/14) 5:59 AM EET (2/14)
Length of Visible Light 11h 53m
Length of Day
11h 03m
Full, 100% of the Moon is Illuminated
Feb 14
Full
Feb 15
Full
Feb 22
Last Quarter
Mar 1
New
Mar 8
First Quarter

Hourly Weather History & Observations

Time (EET) Temp. Dew Point Humidity Pressure Visibility Wind Dir Wind Speed Gust Speed Precip Events Conditions
12:00 AM 53.6 °F 50.0 °F 88% 29.92 in 3.7 mi West 2.3 mph - N/A   Partly Cloudy
1:00 AM 53.6 °F 50.0 °F 88% 29.92 in 3.7 mi West 2.3 mph - N/A   Partly Cloudy
2:00 AM 51 °F 50 °F 97% 29.89 in 2 mi Calm Calm - -   Mist
2:00 AM 51.8 °F 50.0 °F 94% 29.89 in 1.9 mi Calm Calm - N/A   Mist
5:00 AM 59 °F 48 °F 58% 29.92 in 6 mi WNW 13.8 mph - -   Partly Cloudy
5:00 AM 59.0 °F 48.2 °F 67% 29.92 in 6.2 mi WNW 13.8 mph - N/A   Scattered Clouds
6:00 AM 59.0 °F 50.0 °F 72% 29.92 in 6.2 mi WNW 10.4 mph - N/A   Scattered Clouds
7:00 AM 59.0 °F 51.8 °F 77% 29.92 in 6.2 mi West 15.0 mph - N/A   Scattered Clouds
8:00 AM 58 °F 50 °F 67% 29.94 in 6 mi SW 6.9 mph - -   Mostly Cloudy
8:00 AM 59.0 °F 50.0 °F 72% 29.92 in 6.2 mi SW 6.9 mph - N/A   Scattered Clouds
9:00 AM 60.8 °F 55.4 °F 82% 29.95 in 6.2 mi SSW 10.4 mph - N/A   Scattered Clouds
10:00 AM 64.4 °F 53.6 °F 68% 29.95 in 6.2 mi SW 11.5 mph - N/A   Scattered Clouds
11:00 AM 65 °F 49 °F 46% 29.97 in 6 mi SW 17.3 mph - -   Mostly Cloudy
11:00 AM 64.4 °F 50.0 °F 59% 29.95 in 6.2 mi SW 17.3 mph - N/A   Scattered Clouds
12:00 PM 64.4 °F 50.0 °F 59% 29.95 in 6.2 mi WSW 15.0 mph - N/A   Scattered Clouds
1:00 PM 64.4 °F 46.4 °F 52% 29.92 in 6.2 mi WSW 11.5 mph - N/A   Scattered Clouds
2:00 PM 65 °F 47 °F 41% 29.92 in 6 mi West 19.6 mph - -   Partly Cloudy
3:00 PM 64.4 °F 46.4 °F 52% 29.92 in 6.2 mi West 19.6 mph - N/A   Scattered Clouds
4:00 PM 64.4 °F 42.8 °F 45% 29.89 in 6.2 mi WSW 17.3 mph - N/A   Scattered Clouds
5:00 PM 63 °F 48 °F 48% 29.91 in 6 mi West 12.7 mph - -   Partly Cloudy
5:00 PM 62.6 °F 48.2 °F 59% 29.89 in 6.2 mi West 12.7 mph - N/A   Scattered Clouds
6:00 PM 60.8 °F 48.2 °F 63% 29.92 in 6.2 mi West 13.8 mph - N/A   Scattered Clouds
7:00 PM 60.8 °F 50.0 °F 68% 29.92 in 6.2 mi West 10.4 mph - N/A   Partly Cloudy
8:00 PM 60 °F 51 °F 64% 29.92 in 6 mi WSW 9.2 mph - -   Partly Cloudy
8:00 PM 60.8 °F 51.8 °F 72% 29.92 in 6.2 mi WSW 9.2 mph - N/A   Partly Cloudy
9:00 PM 59.0 °F 51.8 °F 77% 29.92 in 6.2 mi West 6.9 mph - N/A   Scattered Clouds
10:00 PM 59.0 °F 51.8 °F 77% 29.92 in 6.2 mi West 20.7 mph - N/A   Scattered Clouds
11:00 PM 58 °F 52 °F 73% 29.93 in 6 mi West 9.2 mph - -   Partly Cloudy
11:00 PM 57.2 °F 51.8 °F 82% 29.92 in 6.2 mi West 9.2 mph - N/A   Scattered Clouds